FENGYUN 1C DEB, 31716

Orbit data source: Space-Track

FENGYUN 1C DEB, 31716 is space debris in SSO originally from a launch on Mon, 10 May 1999 UTC launched from the Taiyaun Space Center, China (TSC). Fengyun 1C debris stems from the Chinese weather satellite Fengyun-1C, which was intentionally destroyed by a Chinese anti-satellite missile in 2007. This event dramatically increased the amount of space debris, with thousands of trackable fragments posing hazards to satellites and human spaceflight. The Fengyun 1C debris cloud has become a focal point in discussions about space sustainability and the need for international regulations to prevent the creation of new debris.

Loading next visibility...
Identifier
31716, 1999-025CDP
Orbit
SSO
Country
Flag of CNCN / PRC
Related business
Manufacturer
Unknown
Mission
Spacecraft
Bus & Motor
Unknown
Mass
Unknown
Launch date (UTC)
1999-05-10 (27 years ago)
Launch vehicle
Unknown
Launch site
Taiyaun Space Center, China (TSC)
Object type
Payload
Rocket body
Debris
Shape & HBR
Unknown shape, 0.1 m
Radar Cross Section
Medium (>0.1 m² and <1 m²)

Expand to show TLE details & history
Last TLE update: 1 day ago

TLE from 1 day ago
0 FENGYUN 1C DEB
1 31716U 99025CDP 26237.17120883  .00001485  00000-0  88381-3 0  9992
2 31716  98.5380 126.2404 0130089  91.1288  59.8509 14.04639319977045
Epoch: 2026-08-25T04:06Z
TLE epoch observation values (Epoch: 2026-08-25T04:06:32.442Z)
Latitude
27.42846°
Longitude
-84.3922°
Altitude
834.626 km
Speed
7.462 km/s
True Right ascension
20h 42m 44s
True Declination
27° 17' 23"
Sunlit
Object was in full shadow at epoch
Visualization orbit readout
Latitude
Unknown
Longitude
Unknown
Altitude
Unknown
Speed
Unknown
Apparent Right ascension
Unknown
Apparent Declination
Unknown
Sunlit
N/A
Visualization observer readout
Local Sidereal Time
02:59:51
Azimuth
Unknown
Elevation
Unknown
Doppler factor
Unknown
Orbital elements
Apogee altitude
969.299 km
Perigee altitude
780.59 km
Semi-major axis
7,253.082 km
Eccentricity
0.01301
Inclination
98.538°
RAAN
126.2404°
Arg. of periapsis
91.1288°
True anomaly
61.15045°
Mean anomaly
59.8509°
Eccentric anomaly
60.49962°
Mean motion
3.51366 °/min
Orbital period
102.46 mins
BSTAR
0.00088381
Loading maneuver chart data...
Computing Atmospheric mass density...

Documentation

Showing up to 5 results
|